Regional Weather Roundup
Issued by NWS

Home | Current Version | Previous Version | Text Only | Print | Product List | Glossary Off
Versions: 1 2 3 4 5 6 7 8 9 10 11 12 13 14 15 16 17 18 19 20 21 22 23 24 25 26 27 28 29 30 31 32 33 34 35 36 37 38 39 40 41 42 43 44 45 46 47 48 49 50

000
ASUS43 KOAX 221202
RWRNE

WEATHER ROUNDUP FOR NEBRASKA
NATIONAL WEATHER SERVICE OMAHA NE
700 AM CDT FRI AUG 22 2014

NOTES: SATELLITE DATA IS BEING USED TO AUGMENT CLOUD COVER ABOVE
       12000 FEET.
       "FAIR" INDICATES FEW OR NO CLOUDS BELOW 12,000 FEET WITH NO
       SIGNIFICANT WEATHER AND/OR OBSTRUCTIONS TO VISIBILITY.

  * THESE STATIONS DO NOT REPORT WEATHER SUCH AS RAIN...SNOW OR FOG.

NEZ001>004-019>022-054>056-221300-
NEBRASKA PANHANDLE

CITY           SKY/WX    TMP DP  RH WIND       PRES   REMARKS
SCOTTSBLUFF    CLOUDY    63  55  75 CALM      30.09R
6HR MIN TEMP:  63; 6HR MAX TEMP:  68;

ALLIANCE       CLOUDY    63  52  67 S8        30.09R
6HR MIN TEMP:  61; 6HR MAX TEMP:  70;

CHADRON        MOCLDY    59  53  80 SW6       30.07R
6HR MIN TEMP:  58; 6HR MAX TEMP:  69;

KIMBALL        CLOUDY    63  54  73 S7        30.13R
SIDNEY         LGT RAIN  62  59  90 S6        30.15R
6HR MIN TEMP:  62; 6HR MAX TEMP:  72; 6HR PCP:  0.22;

$$

NEZ057>060-069>072-079>082-221300-
SOUTHWEST NEBRASKA

CITY           SKY/WX    TMP DP  RH WIND       PRES   REMARKS
NORTH PLATTE   PTCLDY    63  61  93 CALM      30.02R
6HR MIN TEMP:  60; 6HR MAX TEMP:  65;

IMPERIAL       MOCLDY    70  59  68 NW14      30.05R
6HR MIN TEMP:  68; 6HR MAX TEMP:  72;

LEXINGTON      CLEAR     66  65  97 N6        29.97R FOG
MCCOOK         CLEAR     64  63  96 CALM      29.98R FOG
6HR MIN TEMP:  64; 6HR MAX TEMP:  71;

OGALLALA       LGT RAIN  65  62  90 W5        30.06R
$$

NEZ005>010-023>029-035>040-094-221300-
NORTH CENTRAL NEBRASKA

CITY           SKY/WX    TMP DP  RH WIND       PRES   REMARKS
VALENTINE      CLOUDY    64  61  90 SE5       30.01R
6HR MIN TEMP:  63; 6HR MAX TEMP:  71;

AINSWORTH      MOCLDY    64  63  94 CALM      30.00R
BROKEN BOW     MOCLDY    66  64  93 CALM      29.98R
6HR MIN TEMP:  65; 6HR MAX TEMP:  69;

O`NEILL        CLEAR     65  64  99 CALM      29.97S FOG
ORD            PTCLDY    65  63  93 CALM      29.94S
6HR MIN TEMP:  65; 6HR MAX TEMP:  71;

THEDFORD       CLOUDY    66  64  91 CALM      30.03R
$$

NEZ041-046>049-061>064-073>077-083>087-221300-
SOUTH CENTRAL NEBRASKA

CITY           SKY/WX    TMP DP  RH WIND       PRES   REMARKS
GRAND ISLAND   CLEAR     68  66  93 NE3       29.93S
6HR MIN TEMP:  68; 6HR MAX TEMP:  72;

AURORA         CLEAR     69  69 100 NE3       29.92S
HASTINGS         N/A     68  65  90 NE5       29.93R
6HR MIN TEMP:  68; 6HR MAX TEMP:  74;

HEBRON         CLEAR     69  65  88 CALM      29.90S
HOLDREGE       CLEAR     66  64  95 N3        29.94R
KEARNEY *      CLEAR     66  64  94 NE7       29.95R
YORK           CLEAR     66 N/A N/A CALM      29.92R
$$

NEZ011>018-030>034-042>045-221300-
NORTHEAST NEBRASKA

CITY           SKY/WX    TMP DP  RH WIND       PRES   REMARKS
NORFOLK        CLEAR     69  67  93 CALM      29.92S
6HR MIN TEMP:  69; 6HR MAX TEMP:  76;

ALBION         CLEAR     68  66  92 CALM      29.94R FOG
BLAIR          CLEAR     74  71  92 CALM      29.91R FOG
FREMONT        CLEAR     72  70  93 CALM      29.91R
TEKAMAH        CLEAR     71  68  90 S6        29.90R
6HR MIN TEMP:  71; 6HR MAX TEMP:  74;

WAYNE          CLEAR     67  66  97 CALM      29.92S
$$

NEZ050>053-065>068-078-088>093-221300-
SOUTHEAST NEBRASKA

CITY           SKY/WX    TMP DP  RH WIND       PRES   REMARKS
LINCOLN        CLEAR     73  70  90 CALM      29.90R
6HR MIN TEMP:  73; 6HR MAX TEMP:  79;

OMAHA EPPLEY   PTCLDY    73  70  90 CALM      29.90R
6HR MIN TEMP:  73; 6HR MAX TEMP:  78; 6HR PCP: TRACE;

BEATRICE       CLEAR     73  69  89 SE3       29.90R
FALLS CITY     MOCLDY    79  73  82 S5        29.91R
6HR MIN TEMP:  77; 6HR MAX TEMP:  82;

NEBRASKA CITY  MOCLDY    74  74 100 S7        29.90R
PLATTSMOUTH    PTCLDY    72  69  92 CALM      29.89S
$$

NEZ044-045-051>053-067-221300-
OMAHA AREA

CITY           SKY/WX    TMP DP  RH WIND       PRES   REMARKS
OMAHA EPPLEY   PTCLDY    73  70  90 CALM      29.90R
6HR MIN TEMP:  73; 6HR MAX TEMP:  78; 6HR PCP: TRACE;

BLAIR          CLEAR     74  71  92 CALM      29.91R FOG
FREMONT        CLEAR     72  70  93 CALM      29.91R
MILLARD        PTCLDY    73  72  96 CALM      29.89S FOG
OFFUTT AFB     PTCLDY    71  71 100 NE2       29.89R
PLATTSMOUTH    PTCLDY    72  69  92 CALM      29.89S
WAHOO          FAIR      71  68  90 N5        29.90R
$$



USA.gov is the U.S. government's official web portal to all federal, state and local government web resources and services.